Regional Weather Roundup
Issued by NWS Kansas City/Pleasant Hill, MO

Home | Current Version | Previous Version | Text Only | Print | Product List | Glossary On
Versions: 1 2 3 4 5 6 7 8 9 10 11 12 13 14 15 16 17 18 19 20 21 22 23 24 25 26 27
000
ASUS43 KEAX 081710
RWREAX

WEATHER ROUNDUP FOR EASTERN KANSAS AND NORTHWEST MISSOURI
NATIONAL WEATHER SERVICE KANSAS CITY/PLEASANT HILL MO
1100 AM CST THU DEC 08 2016

KSZ040-057-103>105-MOZ028-029-037-043-081800-
...KANSAS CITY METROPOLITAN AREA...

CITY           SKY/WX    TMP DP  RH WIND       PRES   REMARKS
K.C. INTL      SUNNY     20   7  57 NW13      30.62S WCI   7
K.C. DOWNTOWN  SUNNY     22   9  57 W12       30.65R WCI  10
LEES SUMMIT    SUNNY     20   9  62 NW16      30.62R WCI   6
OLATHE - IXD   SUNNY     20  10  65 W12       30.64S WCI   8
OLATHE - OJC   SUNNY     19   8  62 NW14      30.63S WCI   6
LAWRENCE       SUNNY     21  12  68 NW12      30.67S WCI   9

$$

MOZ001>008-011>017-020>025-030>033-038>040-044>046-053-054-081800-
...NORTHERN AND CENTRAL MISSOURI...

CITY           SKY/WX    TMP DP  RH WIND       PRES   REMARKS
ST. JOSEPH     SUNNY     20   7  57 NW17G24   30.64R WCI   5
MOSBY          SUNNY     23   9  54 W12       30.63S WCI  12
WARRENSBURG    SUNNY     23  12  63 W10       30.63S WCI  12
WHITEMAN AFB   MOSUNNY   22  11  62 W10       30.60S WCI  11
CLINTON        SUNNY     23  12  63 W12       30.64S WCI  12
SEDALIA        MOSUNNY   23  12  62 NW13      30.61R WCI  11
WARSAW         NOT AVBL
CHILLICOTHE      N/A     21   9  59 NW16      30.60S WCI   7
KIRKSVILLE     SUNNY     21   9  59 NW16G23   30.52F WCI   7

$$

MOZ041-047>049-056>058-063>065-088>090-097-081800-
...EASTERN AND SOUTHERN MISSOURI...

CITY           SKY/WX    TMP DP  RH WIND       PRES   REMARKS
ST. LOUIS INTL MOSUNNY   27  10  49 NW15G23   30.51S WCI  15
SPIRIT OF STL  SUNNY     27  12  53 NW17      30.52F WCI  14
COLUMBIA       SUNNY     23  10  57 W14       30.56R WCI  11
JEFFERSON CITY SUNNY     23  10  57 NW13G22   30.59S WCI  11
ROLLA          SUNNY     24  13  62 W13       30.52S WCI  12
OSAGE BEACH    SUNNY     26  13  57 W8        30.60S WCI  18
SPRINGFIELD    SUNNY     23  11  60 NW13G18   30.59S WCI  11
BRANSON        PTSUNNY   25   9  50 NW9       30.59R WCI  15
JOPLIN         SUNNY     24  11  57 NW13      30.66F WCI  12
WEST PLAINS    MOSUNNY   27  11  51 W15       30.55S WCI  15

$$

IAZ060-094-KSZ022-034>040-054-083-096-NEZ052-066-093-081800-
...KANSAS...SOUTHEAST NEBRASKA AND IOWA...

CITY           SKY/WX    TMP DP  RH WIND       PRES   REMARKS
TOPEKA         SUNNY     22  10  60 NW10      30.68S WCI  11
MANHATTAN      SUNNY     21   7  54 NW10      30.70S WCI  10
EMPORIA        SUNNY     19  10  68 NW16      30.67S WCI   4
CHANUTE        SUNNY     22  12  65 NW13      30.68S WCI  10
WICHITA        MOSUNNY   24   7  48 N16       30.70S WCI  11
OMAHA          MOSUNNY   19   6  57 NW16      30.63R WCI   4
LINCOLN        SUNNY     18   5  57 NW15      30.66S WCI   4
FALLS CITY     SUNNY     19   6  57 NW15      30.65R WCI   5
LAMONI         PTSUNNY   16   7  67 W21       30.55R WCI  -1
DES MOINES     MOSUNNY   19   7  59 NW20G26   30.52S WCI   3

$$





USA.gov is the U.S. government's official web portal to all federal, state and local government web resources and services.